Weather History for Kansas City International, MO

Change the Weather History Date:

Monday, July 22, 2013

  Actual Average Record
Temperature  
Mean Temperature 82 °F 79 °F  
Max Temperature 97 °F 89 °F 106 °F (1901)
Min Temperature 67 °F 69 °F 57 °F (1988)
Degree Days  
Heating Degree Days 0 0  
Month to date heating degree days 0 0  
Since 1 June heating degree days 17 9  
Since 1 July heating degree days 0 0  
Cooling Degree Days 17 14  
Month to date cooling degree days 299 293  
Year to date cooling degree days 680 675  
Since 1 June cooling degree days 575 559  
Growing Degree Days 32 (Base 50)    
Moisture  
Dew Point 69 °F    
Average Humidity 67    
Maximum Humidity 93    
Minimum Humidity 40    
Precipitation  
Precipitation 0.00 in 0.13 in 1.53 in (1898)
Month to date precipitation 0.20 3.34  
Year to date precipitation 18.25 22.40  
Snow  
Snow 0.00 in 0.00 in 0.00 in ()
Month to date snowfall 0.0 0.0  
Since 1 June snowfall 0.0 0.0  
Since 1 July snowfall 0.0 0.0  
Snow Depth 0.00 in    
Sea Level Pressure  
Sea Level Pressure 29.79 in    
Wind  
Wind Speed 8 mph (South)    
Max Wind Speed 17 mph    
Max Gust Speed 29 mph    
Visibility 10 miles    
Events      
T = Trace of Precipitation, MM = Missing Value Source: NWS Daily Summary

Daily Weather History Graph

Daily Weather History Graph

Search for Another Location

Airport:

Trip Planner

Search our weather history database for the weather conditions in past years. The results will help you decide how hot, cold, wet, or windy it might be!

Date:

Astronomy

Jul. 22, 2013 Rise Set
Actual Time 6:10 AM CDT 8:39 PM CDT
Civil Twilight 5:39 AM CDT 9:10 PM CDT
Nautical Twilight 5:01 AM CDT 9:48 PM CDT
Astronomical Twilight 4:18 AM CDT 10:30 PM CDT
Moon 8:27 PM CDT (7/22) 6:07 AM CDT (7/22)
Length of Visible Light 15h 30m
Length of Day
14h 29m
Full, 100% of the Moon is Illuminated
Jul 22
Full
Jul 22
Full
Jul 29
Last Quarter
Aug 6
New
Aug 14
First Quarter

Hourly Weather History & Observations

Time (CDT) Temp. Heat Index Dew Point Humidity Pressure Visibility Wind Dir Wind Speed Gust Speed Precip Events Conditions
12:53 AM 75.0 °F - 70.0 °F 84% 29.84 in 10.0 mi Calm Calm - N/A   Clear
1:53 AM 73.0 °F - 69.1 °F 87% 29.82 in 10.0 mi South 4.6 mph - N/A   Clear
2:53 AM 70.0 °F - 66.9 °F 90% 29.81 in 10.0 mi South 5.8 mph - N/A   Clear
3:53 AM 72.0 °F - 66.9 °F 84% 29.79 in 10.0 mi SE 3.5 mph - N/A   Partly Cloudy
4:53 AM 70.0 °F - 66.9 °F 90% 29.78 in 10.0 mi South 4.6 mph - N/A   Partly Cloudy
5:53 AM 66.9 °F - 64.9 °F 93% 29.79 in 10.0 mi South 5.8 mph - N/A   Partly Cloudy
6:53 AM 71.1 °F - 69.1 °F 93% 29.80 in 10.0 mi South 6.9 mph - N/A   Mostly Cloudy
7:53 AM 75.9 °F - 70.0 °F 82% 29.81 in 10.0 mi South 8.1 mph - N/A   Mostly Cloudy
8:53 AM 81.0 °F 84.9 °F 71.1 °F 72% 29.81 in 10.0 mi South 6.9 mph - N/A   Mostly Cloudy
9:53 AM 82.0 °F 85.9 °F 70.0 °F 67% 29.81 in 10.0 mi SSE 9.2 mph - N/A   Mostly Cloudy
10:53 AM 84.9 °F 90.1 °F 71.1 °F 63% 29.81 in 10.0 mi SSE 10.4 mph - N/A   Mostly Cloudy
11:53 AM 86.0 °F 92.2 °F 72.0 °F 63% 29.82 in 10.0 mi SSW 10.4 mph - N/A   Mostly Cloudy
12:53 PM 90.0 °F 96.4 °F 71.1 °F 54% 29.79 in 10.0 mi South 10.4 mph 16.1 mph N/A   Mostly Cloudy
1:53 PM 91.9 °F 98.4 °F 71.1 °F 50% 29.79 in 10.0 mi SSW 15.0 mph 18.4 mph N/A   Mostly Cloudy
2:53 PM 93.9 °F 100.3 °F 70.0 °F 46% 29.78 in 10.0 mi SW 13.8 mph - N/A   Mostly Cloudy
3:53 PM 95.0 °F 101.3 °F 70.0 °F 44% 29.76 in 10.0 mi SW 9.2 mph - N/A   Scattered Clouds
4:53 PM 96.1 °F 101.0 °F 68.0 °F 40% 29.75 in 10.0 mi SW 12.7 mph - N/A   Mostly Cloudy
5:53 PM 90.0 °F 93.6 °F 68.0 °F 48% 29.75 in 10.0 mi SW 9.2 mph 18.4 mph N/A   Mostly Cloudy
6:53 PM 88.0 °F 90.7 °F 66.9 °F 49% 29.75 in 10.0 mi SW 15.0 mph 23.0 mph N/A   Mostly Cloudy
7:53 PM 84.9 °F 87.1 °F 66.0 °F 53% 29.76 in 10.0 mi SW 13.8 mph - N/A   Partly Cloudy
8:53 PM 79.0 °F - 66.0 °F 64% 29.76 in 10.0 mi SSW 5.8 mph - N/A   Partly Cloudy
9:53 PM 77.0 °F - 66.0 °F 69% 29.77 in 10.0 mi South 4.6 mph - N/A   Partly Cloudy
10:53 PM 75.9 °F - 66.0 °F 71% 29.79 in 10.0 mi SSE 4.6 mph - N/A   Clear
11:53 PM 73.4 °F - 66.2 °F 78% 29.80 in 10.0 mi South 8.1 mph - N/A   Clear